Weather History for KRKR - November, 2012

Change the Weather History Date:

Tuesday, November 6, 2012

  Actual Average (KFSM) Record (KFSM)
Temperature  
Mean Temperature 54 °F 56 °F  
Max Temperature 66 °F 67 °F 83 °F (1980)
Min Temperature 41 °F 44 °F 21 °F (1959)
Degree Days  
Heating Degree Days 12 10  
Month to date heating degree days 55  
Since 1 July heating degree days 209  
Growing Degree Days 4 (Base 50)    
Moisture  
Dew Point 42 °F    
Average Humidity 77    
Maximum Humidity 100    
Minimum Humidity 40    
Precipitation  
Precipitation 0.00 in 0.15 in 2.14 in (1996)
Month to date precipitation 0.89  
Year to date precipitation 38.62  
Sea Level Pressure  
Sea Level Pressure 30.09 in    
Wind  
Wind Speed 2 mph (SW)    
Max Wind Speed 9 mph    
Max Gust Speed -    
Visibility 10 miles    
Events      
T = Trace of Precipitation, MM = Missing Value Source: NWS Daily Summary

Daily Weather History Graph

Daily Weather History Graph

Search for Another Location

Airport or City:

Trip Planner

Search our weather history database for the weather conditions in past years. The results will help you decide how hot, cold, wet, or windy it might be!

Date:

Astronomy

Nov. 06, 2012 Rise Set
Actual Time 6:44 AM CST 5:19 PM CST
Civil Twilight 6:18 AM CST 5:45 PM CST
Nautical Twilight 5:48 AM CST 6:15 PM CST
Astronomical Twilight 5:18 AM CST 6:45 PM CST
Moon 11:56 PM CST (11/6) 12:39 PM CST (11/6)
Length of Visible Light 11h 27m
Length of Day
10h 34m
Waning Gibbous, 53% of the Moon is Illuminated
Nov 6
Waning Gibbous
Nov 6
Last Quarter
Nov 13
New
Nov 20
First Quarter
Nov 28
Full

Hourly Weather History & Observations

Time (CST) Temp. Windchill Dew Point Humidity Pressure Visibility Wind Dir Wind Speed Gust Speed Precip Events Conditions
12:15 AM 46.4 °F 43.5 °F 41.0 °F 81% 30.10 in 10.0 mi NNW 5.8 mph - N/A   Clear
12:35 AM 48.2 °F - 42.8 °F 82% 30.10 in 10.0 mi North 6.9 mph - N/A   Clear
12:55 AM 48.2 °F - 42.8 °F 82% 30.09 in 10.0 mi Calm Calm - N/A   Clear
1:15 AM 44.6 °F - 41.0 °F 87% 30.09 in 10.0 mi Calm Calm - N/A   Clear
1:35 AM 42.8 °F - 41.0 °F 93% 30.09 in 10.0 mi Calm Calm - N/A   Clear
1:55 AM 44.6 °F - 41.0 °F 87% 30.09 in 10.0 mi Calm Calm - N/A   Mostly Cloudy
2:15 AM 44.6 °F - 41.0 °F 87% 30.09 in 10.0 mi Calm Calm - N/A   Mostly Cloudy
2:35 AM 42.8 °F - 41.0 °F 93% 30.10 in 10.0 mi Calm Calm - N/A   Scattered Clouds
2:55 AM 42.8 °F - 41.0 °F 93% 30.10 in 10.0 mi Calm Calm - N/A   Overcast
3:15 AM 44.6 °F - 41.0 °F 87% 30.10 in 10.0 mi Calm Calm - N/A   Overcast
3:35 AM 44.6 °F - 42.8 °F 93% 30.10 in 10.0 mi Calm Calm - N/A   Overcast
3:55 AM 44.6 °F - 42.8 °F 93% 30.09 in 10.0 mi Calm Calm - N/A   Mostly Cloudy
4:15 AM 42.8 °F - 41.0 °F 93% 30.10 in 10.0 mi Calm Calm - N/A   Scattered Clouds
4:35 AM 42.8 °F - 41.0 °F 93% 30.09 in 10.0 mi Calm Calm - N/A   Clear
4:55 AM 41.0 °F - 41.0 °F 100% 30.10 in 10.0 mi Calm Calm - N/A   Clear
5:15 AM 41.0 °F - 41.0 °F 100% 30.11 in 10.0 mi Calm Calm - N/A   Scattered Clouds
5:35 AM 41.0 °F - 41.0 °F 100% 30.11 in 10.0 mi Calm Calm - N/A   Mostly Cloudy
5:55 AM 41.0 °F - 41.0 °F 100% 30.11 in 10.0 mi Calm Calm - N/A   Overcast
6:15 AM 41.0 °F - 41.0 °F 100% 30.11 in 10.0 mi Calm Calm - N/A   Overcast
6:35 AM 41.0 °F - 41.0 °F 100% 30.11 in 10.0 mi Calm Calm - N/A   Overcast
6:55 AM 41.0 °F - 41.0 °F 100% 30.11 in 7.0 mi Calm Calm - N/A   Overcast
7:15 AM 41.0 °F - 41.0 °F 100% 30.13 in 7.0 mi Calm Calm - N/A   Overcast
7:35 AM 41.0 °F - 41.0 °F 100% 30.14 in 7.0 mi Calm Calm - N/A   Overcast
7:55 AM 42.8 °F - 41.0 °F 93% 30.15 in 10.0 mi Calm Calm - N/A   Overcast
8:15 AM 42.8 °F - 42.8 °F 100% 30.16 in 10.0 mi Calm Calm - N/A   Overcast
8:35 AM 44.6 °F - 42.8 °F 93% 30.16 in 10.0 mi Calm Calm - N/A   Overcast
8:55 AM 48.2 °F - 44.6 °F 87% 30.16 in 10.0 mi Calm Calm - N/A   Mostly Cloudy
9:15 AM 51.8 °F - 44.6 °F 76% 30.16 in 10.0 mi Calm Calm - N/A   Scattered Clouds
9:35 AM 51.8 °F - 42.8 °F 71% 30.15 in 10.0 mi Calm Calm - N/A   Mostly Cloudy
9:55 AM 51.8 °F - 42.8 °F 71% 30.16 in 10.0 mi SW 3.5 mph - N/A   Scattered Clouds
10:15 AM 51.8 °F - 42.8 °F 71% 30.16 in 10.0 mi South 5.8 mph - N/A   Clear
10:35 AM 55.4 °F - 44.6 °F 67% 30.15 in 10.0 mi WSW 5.8 mph - N/A   Scattered Clouds
10:55 AM 55.4 °F - 44.6 °F 67% 30.15 in 10.0 mi SSW 4.6 mph - N/A   Clear
11:15 AM 55.4 °F - 44.6 °F 67% 30.14 in 10.0 mi South 6.9 mph - N/A   Clear
11:35 AM 55.4 °F - 44.6 °F 67% 30.13 in 10.0 mi South 5.8 mph - N/A   Clear
11:55 AM 55.4 °F - 44.6 °F 67% 30.11 in 10.0 mi South 5.8 mph - N/A   Clear
12:15 PM 59.0 °F - 44.6 °F 59% 30.10 in 10.0 mi South 6.9 mph - N/A   Clear
12:35 PM 59.0 °F - 44.6 °F 59% 30.08 in 10.0 mi South 4.6 mph - N/A   Clear
12:55 PM 59.0 °F - 44.6 °F 59% 30.07 in 10.0 mi SSW 3.5 mph - N/A   Clear
1:15 PM 60.8 °F - 44.6 °F 55% 30.05 in 10.0 mi South 8.1 mph - N/A   Clear
1:35 PM 60.8 °F - 42.8 °F 52% 30.05 in 10.0 mi South 6.9 mph - N/A   Clear
1:55 PM 62.6 °F - 42.8 °F 48% 30.04 in 10.0 mi Calm Calm - N/A   Clear
2:15 PM 62.6 °F - 42.8 °F 48% 30.04 in 10.0 mi Calm Calm - N/A   Clear
2:35 PM 62.6 °F - 42.8 °F 48% 30.03 in 10.0 mi Calm Calm - N/A   Clear
2:55 PM 64.4 °F - 42.8 °F 45% 30.03 in 10.0 mi NNW 4.6 mph - N/A   Clear
3:15 PM 66.2 °F - 41.0 °F 40% 30.04 in 10.0 mi West 4.6 mph - N/A   Clear
3:35 PM 66.2 °F - 41.0 °F 40% 30.04 in 10.0 mi West 8.1 mph - N/A   Clear
3:55 PM 64.4 °F - 42.8 °F 45% 30.05 in 10.0 mi West 6.9 mph - N/A   Clear
4:15 PM 64.4 °F - 42.8 °F 45% 30.04 in 10.0 mi NW 9.2 mph - N/A   Clear
4:35 PM 64.4 °F - 41.0 °F 42% 30.04 in 10.0 mi NW 3.5 mph - N/A   Clear
4:55 PM 62.6 °F - 42.8 °F 48% 30.04 in 10.0 mi West 5.8 mph - N/A   Clear
5:35 PM 60.8 °F - 42.8 °F 52% 30.04 in 10.0 mi Calm Calm - N/A   Clear
5:55 PM 59.0 °F - 42.8 °F 55% 30.05 in 10.0 mi Calm Calm - N/A   Clear
6:15 PM 60.8 °F - 42.8 °F 52% 30.06 in 10.0 mi South 3.5 mph - N/A   Clear
6:35 PM 59.0 °F - 42.8 °F 55% 30.06 in 10.0 mi Calm Calm - N/A   Clear
6:55 PM 53.6 °F - 42.8 °F 67% 30.06 in 10.0 mi Calm Calm - N/A   Clear
7:15 PM 51.8 °F - 42.8 °F 71% 30.06 in 10.0 mi Calm Calm - N/A   Clear
7:35 PM 51.8 °F - 42.8 °F 71% 30.07 in 10.0 mi Calm Calm - N/A   Clear
7:55 PM 50.0 °F - 42.8 °F 76% 30.07 in 10.0 mi Calm Calm - N/A   Clear
8:15 PM 46.4 °F - 42.8 °F 87% 30.07 in 10.0 mi Calm Calm - N/A   Clear
8:35 PM 44.6 °F - 41.0 °F 87% 30.08 in 10.0 mi Calm Calm - N/A   Clear
8:55 PM 44.6 °F - 41.0 °F 87% 30.08 in 10.0 mi Calm Calm - N/A   Clear
9:15 PM 44.6 °F - 41.0 °F 87% 30.09 in 10.0 mi Calm Calm - N/A   Clear
9:35 PM 42.8 °F - 41.0 °F 93% 30.09 in 10.0 mi Calm Calm - N/A   Clear
9:55 PM 44.6 °F - 42.8 °F 93% 30.10 in 10.0 mi Calm Calm - N/A   Clear
10:15 PM 42.8 °F - 41.0 °F 93% 30.10 in 10.0 mi Calm Calm - N/A   Clear
10:35 PM 42.8 °F - 41.0 °F 93% 30.11 in 10.0 mi Calm Calm - N/A   Clear
10:55 PM 41.0 °F - 39.2 °F 93% 30.11 in 10.0 mi Calm Calm - N/A   Clear
11:15 PM 41.0 °F - 39.2 °F 93% 30.11 in 10.0 mi Calm Calm - N/A   Clear
11:35 PM 41.0 °F - 41.0 °F 100% 30.12 in 10.0 mi Calm Calm - N/A   Clear
11:55 PM 41.0 °F - 41.0 °F 100% 30.12 in 10.0 mi Calm Calm - N/A   Clear